This listing is closed

Air Receiving Tank/Cylinder, Forbes Proair, Not Tested, Buyer to Remove

$380.00

4 Jeanes Street, Beverley SA, Australia
Bidding is closed for this item.

Lot Information

Lot Description

  • WP 1.0 MPA
  • TP 1.5 MPA
  • D Temp 250C

Bid History

Bid # Bidder Amount Quantity Allocated Date
43 75935 $380.00* 1 1 Tue, 27 Aug 2019 at 6:24 PM
42 1426 $380.00* 1 0 Tue, 27 Aug 2019 at 6:24 PM
41 1426 $350.00 1 0 Tue, 27 Aug 2019 at 6:24 PM
40 75935 $340.00* 1 0 Tue, 27 Aug 2019 at 6:02 PM
39 1426 $330.00* 1 0 Tue, 27 Aug 2019 at 6:02 PM
38 75935 $320.00 1 0 Tue, 27 Aug 2019 at 6:02 PM
37 1426 $310.00 1 0 Tue, 27 Aug 2019 at 5:19 PM
36 1426 $300.00* 1 0 Tue, 27 Aug 2019 at 5:19 PM
35 75935 $300.00* 1 0 Tue, 27 Aug 2019 at 5:19 PM
34 1426 $235.00 1 0 Tue, 27 Aug 2019 at 5:19 PM
33 1426 $230.00* 1 0 Tue, 27 Aug 2019 at 5:02 PM
32 75935 $230.00* 1 0 Tue, 27 Aug 2019 at 5:02 PM
31 1426 $215.00 1 0 Tue, 27 Aug 2019 at 5:02 PM
30 75935 $210.00 1 0 Mon, 26 Aug 2019 at 3:33 PM
29 1426 $205.00* 1 0 Mon, 26 Aug 2019 at 3:31 PM
28 75935 $200.00* 1 0 Mon, 26 Aug 2019 at 3:31 PM
27 1426 $150.00 1 0 Mon, 26 Aug 2019 at 3:31 PM
26 75935 $145.00* 1 0 Mon, 26 Aug 2019 at 3:15 PM
25 1426 $140.00* 1 0 Mon, 26 Aug 2019 at 3:15 PM
24 75935 $140.00 1 0 Mon, 26 Aug 2019 at 3:15 PM
23 1426 $135.00* 1 0 Mon, 26 Aug 2019 at 3:12 PM
22 75935 $135.00 1 0 Mon, 26 Aug 2019 at 3:12 PM
21 1426 $130.00* 1 0 Mon, 26 Aug 2019 at 3:10 PM
20 75935 $130.00 1 0 Mon, 26 Aug 2019 at 3:10 PM
19 34282 $125.00* 1 0 Mon, 26 Aug 2019 at 12:45 PM
18 1426 $125.00* 1 0 Mon, 26 Aug 2019 at 12:45 PM
17 34282 $110.00 1 0 Mon, 26 Aug 2019 at 12:45 PM
16 34282 $105.00* 1 0 Mon, 26 Aug 2019 at 12:45 PM
15 1426 $105.00* 1 0 Mon, 26 Aug 2019 at 12:45 PM
14 34282 $90.00 1 0 Mon, 26 Aug 2019 at 12:45 PM
13 34282 $85.00* 1 0 Mon, 26 Aug 2019 at 12:36 PM
12 1426 $85.00* 1 0 Mon, 26 Aug 2019 at 12:36 PM
11 34282 $50.00 1 0 Mon, 26 Aug 2019 at 12:36 PM
10 1426 $47.50* 1 0 Thu, 22 Aug 2019 at 12:05 PM
9 1419 $47.50 1 0 Thu, 22 Aug 2019 at 12:05 PM
8 1426 $45.00* 1 0 Wed, 21 Aug 2019 at 6:42 PM
7 19698 $45.00 1 0 Wed, 21 Aug 2019 at 6:42 PM
6 1426 $42.50* 1 0 Tue, 20 Aug 2019 at 11:38 PM
5 30241 $42.50 1 0 Tue, 20 Aug 2019 at 11:38 PM
4 32605 $40.00* 1 0 Mon, 19 Aug 2019 at 9:42 PM
3 1426 $40.00* 1 0 Mon, 19 Aug 2019 at 9:42 PM
2 32605 $17.50 1 0 Mon, 19 Aug 2019 at 9:42 PM
1 1426 $15.00 1 0 Mon, 19 Aug 2019 at 6:56 PM
 Bid history...
* = AutoBid, ^ = BuyItNow

Auction Description

Industrial Tooling, Workshop Equipment, Air Compressor + Home Furniture and Kone Elevator

Precision Components Australia who have assets surplus to requirements

Auction Closes: Tuesday 27th August 2019 at 7:00pm

Inspection: Monday 26th August 2019 10am to 11am

Location: 4 Jeanes Street, Beverley SA 5009

Contact: Andrew Monks on 0414 340 399

Collection: Wednesday 28th & Thursday 29th 10am - 3pm 

Payment: All assets must be paid for in full prior to any work commencing onsite.

Asset Removal: It is the purchasers responsibility to remove all purchased lots from site. This includes all asset preparation for transport.

Tradespeople and Contractors: All (e.g. electricians, plumbers, riggers, equipment operators) must produce relevant licences and/or white card prior to the commencement of any work on site.

Tooling, Plant & Equipment: Any equipment used onsite in the removal of purchased items must be tested & tagged, and/or compliant with OHW&S legislation and requirements,

Onsite Work: All work carried out onsite must be compliant with all OHW&S legislation, appropriate PPE must be utilised as required or specified.

Site Access: All site attendees must comply with directions given by the Vendor or Auction Staff

Environmental Compliance: All removal, disassembly of assets and work conducted onsite must be compliant with the Environmental Protection Act 1993

Important Information

Item Code 99125+148
Safety Advice WHS hazard assessment may be required before being placed into use.
Lifting Advice We believe this item would be best moved with more than one person.
Views This item has been viewed 254 times.